Theta_e
336 340 350 353 355 355 355 355 354 354 355 355 353 353 354 353 353 353 353 354 354 352 352 350 349 349 350 349 349 349 349 348 347 347 345 345 347 347 346 345 345 344 347
337 342 347 352 354 354 354 353 353 353 354 355 353 353 353 353 353 353 353 353 353 353 352 351 348 348 349 348 347 347 346 346 345 344 344 345 345 345 345 345 346 342 347
339 344 347 349 352 353 352 352 352 353 354 355 354 354 353 353 353 353 353 353 353 353 351 350 347 346 345 345 345 344 343 343 344 341 340 335 337 343 345 345 345 346 344
342 345 346 346 351 352 351 351 352 352 353 355 354 354 353 353 352 352 352 351 351 351 349 346 345 345 344 344 344 343 342 342 340 340 338 339 341 344 343 344 344 344 345
341 344 346 345 350 351 351 351 351 352 352 354 354 354 353 353 352 352 351 351 350 350 348 346 343 342 343 343 343 342 341 340 340 339 338 338 339 345 344 344 343 343 344
340 343 343 346 350 350 350 350 351 351 352 353 353 353 353 353 352 351 350 350 349 348 347 345 343 342 341 341 341 341 339 336 338 337 336 338 337 344 343 344 343 343 344
337 341 342 345 348 349 350 350 350 350 351 351 352 352 352 351 350 349 349 348 347 347 344 343 341 340 340 340 339 336 328 335 330 331 332 332 335 340 339 338 338 340 341
337 339 343 339 343 346 347 348 348 349 349 350 350 350 350 349 348 348 348 347 346 344 341 340 338 338 339 337 334 325 331 328 323 320 323 327 335 334 333 334 334 335 336
336 339 342 344 341 337 341 342 344 346 347 347 347 347 346 345 345 345 344 344 343 340 337 335 334 334 333 332 324 325 324 323 315 316 320 322 332 329 327 326 327 328 330
335 338 340 343 344 343 342 334 337 340 341 342 342 340 337 338 339 339 336 339 340 337 334 330 328 326 327 324 321 322 320 317 310 312 314 319 327 325 323 322 322 322 323
334 337 338 340 342 343 341 336 332 334 335 335 334 331 330 338 337 334 332 334 335 333 331 327 325 322 321 320 319 315 312 307 308 309 311 324 323 322 321 320 320 321 321
330 335 338 340 341 341 340 339 337 335 337 337 336 335 335 334 333 330 327 328 329 327 328 325 322 317 308 302 306 308 304 305 305 307 310 322 320 320 320 321 320 320 320
331 334 337 337 340 339 338 335 334 335 334 334 334 331 329 326 325 326 325 324 322 318 319 315 310 299 297 299 299 299 300 301 301 305 313 319 318 319 319 321 321 320 320
323 331 336 336 336 338 335 334 334 333 332 331 329 327 324 323 321 321 319 317 316 310 306 304 300 299 298 299 299 298 298 298 298 300 308 315 316 317 321 322 322 321 320
323 327 334 336 335 336 333 332 332 331 330 329 326 326 324 320 319 317 314 313 311 309 304 299 299 299 298 298 299 298 298 297 296 297 300 311 316 321 323 324 324 325 323
322 325 333 335 335 335 334 332 330 329 328 328 326 323 322 319 317 315 311 308 306 306 302 300 299 298 299 299 298 298 298 298 297 297 298 303 316 320 323 324 324 325 323
323 326 331 333 335 333 331 329 328 328 326 325 323 321 320 319 316 314 310 306 304 300 300 300 299 298 299 299 298 298 298 298 298 297 297 298 306 316 321 321 321 321 322
320 323 327 331 332 331 330 329 328 326 326 323 319 318 317 317 314 312 310 306 302 301 300 299 299 298 297 296 295 296 296 297 297 298 298 298 300 307 314 317 317 318 320
308 321 324 329 328 329 329 328 327 325 326 322 319 317 316 316 314 312 309 305 302 300 300 299 297 297 295 294 295 295 294 295 296 297 296 297 299 302 303 312 311 313 315
303 319 323 326 326 328 327 326 326 325 325 322 318 316 313 312 313 311 307 303 301 299 297 296 296 296 295 294 296 295 293 295 294 293 295 297 297 300 300 299 298 302 310
297 315 320 320 323 326 323 320 321 320 321 321 318 316 314 312 310 308 306 303 301 300 299 298 295 294 293 293 293 292 293 294 293 294 293 294 296 298 297 296 296 296 297
295 311 318 320 322 323 323 322 321 321 320 321 319 316 314 310 309 307 306 303 301 299 298 296 295 293 293 295 291 290 288 291 293 293 292 293 294 296 296 297 296 296 296
293 301 315 318 320 321 321 320 316 318 316 316 316 315 312 310 308 308 306 304 302 301 298 297 296 295 292 293 293 291 287 286 289 291 292 292 293 293 294 295 296 296 296
292 295 310 316 319 319 321 317 315 314 312 314 313 314 313 310 308 307 306 304 302 301 300 299 298 296 294 293 291 293 291 291 288 287 290 290 291 292 292 292 293 294 295
292 293 305 316 318 318 319 318 316 315 315 315 313 312 311 310 309 305 305 303 302 301 301 300 298 296 294 293 291 290 289 288 288 287 285 287 289 285 286 290 288 291 293
292 294 301 313 316 316 318 317 316 314 314 311 311 310 309 308 306 304 304 303 302 302 300 300 299 298 296 294 292 291 290 289 287 287 286 285 286 286 284 289 289 288 289
Wind_Speed
8 14 22 23 23 23 22 23 22 19 17 17 17 18 18 18 18 19 20 20 19 18 18 19 16 15 14 15 16 14 15 14 12 12 12 14 16 17 16 14 11 9 14
10 17 25 23 22 21 24 22 22 20 19 19 18 18 19 19 19 19 19 18 18 18 19 19 17 15 14 14 16 14 15 13 11 10 10 12 14 15 16 13 12 11 14
11 13 17 20 22 21 20 21 21 20 19 20 19 18 19 18 19 19 18 18 17 18 19 19 17 16 13 12 15 14 14 11 10 10 9 5 6 15 15 14 12 13 12
15 15 17 17 20 21 22 20 20 20 19 20 20 19 19 19 18 19 17 16 17 19 19 18 16 15 14 13 14 14 13 10 9 9 4 4 7 15 14 13 13 12 12
13 15 16 21 22 21 21 22 21 20 19 19 20 20 20 20 19 18 18 17 17 19 19 17 16 15 14 14 13 13 12 8 9 9 6 5 5 13 14 13 12 11 9
11 14 17 21 22 22 22 21 21 21 20 20 21 21 21 21 20 19 19 18 17 17 19 18 18 15 14 14 14 14 11 8 10 9 8 7 6 14 13 13 12 12 10
9 11 14 22 23 22 22 22 21 21 21 21 23 22 22 21 22 20 19 19 18 18 17 17 18 16 13 14 14 13 9 12 6 7 7 6 8 14 10 9 8 10 12
14 10 14 16 19 21 21 21 21 21 21 21 23 23 22 22 23 22 20 21 21 20 19 17 17 17 14 13 14 12 12 12 8 7 6 6 12 11 9 9 8 8 7
14 14 15 15 14 15 17 18 20 21 20 20 22 23 24 23 22 23 22 21 21 21 21 18 17 16 14 13 12 14 14 13 8 5 6 4 11 9 8 7 7 7 7
10 13 16 16 15 14 13 15 15 17 17 18 19 19 17 20 21 21 18 20 21 21 19 19 16 15 15 15 14 15 16 14 7 6 5 4 9 8 7 7 6 5 5
7 11 12 15 15 14 13 12 14 15 16 17 15 16 14 11 14 16 14 19 20 19 20 19 16 14 13 12 12 14 13 5 6 4 3 8 9 7 6 6 5 5 5
14 14 13 14 15 13 11 12 11 9 9 11 13 16 10 12 11 12 12 17 18 17 18 19 18 14 8 5 5 10 5 6 5 4 3 7 8 7 6 5 5 5 4
15 13 13 14 14 13 10 8 6 5 6 6 14 12 12 10 9 8 7 7 9 9 7 9 8 4 7 5 5 5 5 5 4 3 4 6 7 6 5 5 6 6 5
10 15 18 15 11 14 7 8 8 8 8 8 9 16 12 8 8 8 7 8 7 5 7 5 4 5 6 6 6 6 6 5 4 3 4 7 6 5 5 6 7 6 5
11 12 16 16 13 13 12 8 8 8 8 10 11 12 13 13 11 9 7 8 7 8 7 5 5 5 6 6 6 7 6 6 6 3 2 7 5 4 8 8 8 8 7
12 11 14 15 15 14 13 14 9 9 9 9 11 12 12 12 11 11 8 6 6 6 7 6 5 5 5 5 6 6 6 5 6 5 2 2 4 3 7 8 8 9 7
12 12 14 15 15 15 14 13 10 9 9 9 10 14 15 13 14 13 9 7 7 5 7 6 5 4 4 3 6 5 5 6 5 5 3 2 1 2 1 7 7 6 6
10 13 13 12 14 14 13 13 11 10 10 9 9 11 14 12 12 15 9 8 7 7 6 6 6 5 5 4 3 3 4 4 5 5 3 2 1 2 5 6 5 4 5
9 10 12 14 15 14 12 11 12 14 11 10 9 10 14 13 12 14 10 7 8 7 6 7 4 6 5 4 5 4 3 3 3 3 4 3 3 2 1 4 5 4 2
8 10 13 12 16 15 10 10 9 11 11 10 10 10 15 12 14 11 11 10 8 7 6 4 6 3 3 5 6 4 2 2 2 1 3 2 3 3 3 3 2 1 2
8 10 11 15 13 13 9 9 9 11 10 11 10 13 15 13 14 12 10 12 9 9 9 9 4 6 3 3 5 3 3 3 1 2 2 2 3 3 3 3 2 1 1
10 10 10 12 15 12 11 9 6 8 8 11 11 12 13 15 15 13 13 11 12 9 9 9 7 5 3 7 5 3 2 3 1 1 0 2 4 3 3 3 3 3 1
10 9 11 11 15 15 14 9 4 5 4 5 7 9 11 14 16 17 17 14 12 11 11 12 10 8 5 7 4 6 3 5 2 1 2 2 4 3 3 3 3 3 2
11 9 12 12 13 12 16 12 15 11 8 7 8 8 10 14 15 14 15 16 14 10 11 12 10 8 5 11 0 0 4 5 4 2 2 2 3 4 4 3 4 4 3
8 9 13 15 15 13 16 17 13 13 9 6 8 11 11 11 13 13 14 14 15 11 12 13 12 9 5 7 5 4 2 2 2 4 3 3 1 2 3 4 3 3 4
6 6 10 15 16 16 17 16 17 15 11 9 11 10 8 9 10 12 14 14 14 13 14 12 12 13 11 7 5 5 5 5 4 4 3 2 3 3 2 3 3 3 3
Wind_Direction
208 172 181 180 178 167 162 156 153 155 159 155 148 142 141 140 138 136 140 141 141 142 140 137 138 129 127 120 115 112 106 101 100 103 101 100 88 101 91 86 78 77 85
149 170 178 179 179 173 162 159 154 156 159 159 156 150 146 147 146 142 143 143 147 148 143 139 140 131 126 120 113 109 106 103 100 92 95 98 95 94 92 87 89 88 84
134 167 176 177 175 172 165 158 157 157 161 162 162 157 152 151 148 146 142 142 143 143 141 136 141 137 133 124 116 114 112 108 107 103 99 95 95 94 91 86 86 90 91
145 161 174 176 177 172 163 161 159 159 163 166 165 161 158 155 152 149 145 146 151 149 148 148 145 140 135 131 122 120 118 119 124 134 108 93 104 98 93 88 93 85 83
153 161 175 175 175 175 169 162 164 164 164 168 168 166 160 156 155 153 150 152 155 154 143 144 146 146 140 133 127 123 115 109 107 103 91 81 84 87 90 83 82 86 81
162 167 171 178 176 173 171 168 168 167 167 169 170 169 163 160 157 156 153 154 156 156 145 147 143 144 145 138 125 116 107 109 110 103 89 77 81 90 87 86 95 80 86
163 171 173 176 176 173 172 171 170 172 170 170 171 170 166 164 155 156 154 150 153 144 146 147 143 141 147 132 122 115 104 111 110 102 101 97 86 80 76 93 85 80 74
163 161 176 176 174 173 172 174 171 174 174 171 170 168 167 162 155 152 151 148 146 139 147 148 144 142 141 131 120 104 110 108 99 89 79 78 86 90 97 95 96 93 81
164 159 173 177 175 174 174 175 174 173 174 173 170 168 164 164 156 150 150 149 141 149 149 148 145 141 136 125 111 103 100 100 95 93 91 83 103 113 102 94 90 82 75
162 165 174 179 173 176 180 173 175 174 172 170 169 166 161 153 152 147 144 147 146 148 148 144 142 139 133 123 105 105 104 101 98 96 89 108 123 117 104 93 85 80 79
163 175 171 177 178 177 180 183 177 178 172 164 161 149 153 147 143 140 149 144 147 148 147 142 138 133 124 112 105 110 106 102 101 95 104 118 128 120 109 101 98 99 98
179 182 178 180 180 178 179 179 184 190 189 177 163 153 149 142 141 138 142 145 144 146 143 142 136 131 115 104 98 105 109 112 104 114 110 122 128 123 118 107 108 110 108
185 175 176 187 176 177 177 168 169 166 149 169 158 141 133 125 133 135 137 136 138 130 139 127 127 121 119 121 111 107 111 108 109 109 111 115 122 123 123 127 119 119 123
190 184 182 182 197 169 171 172 163 166 159 159 155 143 140 133 140 139 142 144 142 124 116 118 125 122 124 126 124 115 117 117 115 124 124 107 117 137 140 133 117 118 126
215 191 181 179 186 176 175 175 167 162 160 165 155 153 154 147 151 149 151 149 143 135 138 134 133 134 133 129 123 120 123 124 126 126 121 130 142 162 147 133 121 105 110
225 210 186 193 187 173 176 173 171 161 156 167 166 152 168 148 150 153 149 148 134 145 146 137 143 139 137 131 124 123 123 124 127 127 130 139 155 147 145 127 124 121 124
224 203 194 190 189 182 178 170 164 164 154 165 170 156 161 161 157 144 150 157 144 142 132 121 122 109 108 110 122 122 123 129 134 140 143 156 123 67 174 124 124 113 115
236 208 195 191 190 182 175 175 166 161 161 168 162 154 158 156 168 139 154 160 151 143 144 141 143 124 128 129 117 118 120 125 136 140 150 157 136 53 73 103 98 111 123
237 231 199 184 189 186 178 179 174 164 168 161 169 165 162 159 164 146 149 150 152 145 149 155 136 132 145 138 130 115 104 116 130 129 152 154 170 128 109 105 91 65 92
217 228 212 186 187 181 171 179 175 173 170 164 166 169 161 158 160 154 144 147 153 148 140 134 138 96 125 136 114 100 98 106 112 169 175 148 151 163 156 121 86 30 58
233 208 222 199 186 170 174 176 189 190 171 169 176 176 167 161 156 153 149 151 157 166 167 158 130 131 100 128 104 51 18 28 62 224 198 169 154 163 171 155 163 116 336
240 214 209 194 173 180 178 175 184 184 192 180 176 173 174 163 159 157 151 166 166 158 157 162 147 132 123 181 129 104 153 323 337 257 255 201 178 167 175 183 167 166 190
239 214 209 203 179 178 177 160 118 154 147 182 180 171 182 169 164 164 167 165 172 171 173 175 166 165 143 198 207 142 127 216 137 336 219 218 186 185 201 182 182 166 173
222 227 213 208 188 186 156 167 170 182 178 195 182 179 179 181 177 175 171 167 170 173 179 180 178 174 143 181 95 143 68 138 161 175 291 242 209 209 210 215 186 173 167
207 214 210 203 192 174 166 171 178 189 196 174 172 171 182 190 184 173 168 172 172 176 180 180 181 176 168 161 167 145 117 66 88 128 176 221 279 233 227 205 195 181 171
282 247 219 198 194 174 167 177 181 191 194 173 181 168 180 187 184 177 173 175 178 180 178 182 186 190 186 172 169 168 160 162 186 148 127 190 189 236 219 204 187 190 180